DECAYED
Showing default

GUARDIAN, 52775 (Decayed)

Orbit data source: Space-Track

GUARDIAN, 52775 was a payload satellite owned by AISTech (ES) in LEO that was launched on Wed, 25 May 2022 UTC via an FALCON 9 launch vehicle from the Air Force Eastern Test Range (AFETR). Payload-class satellites include a variety of spacecraft equipped with specific instruments for various scientific and technological missions. These include communications satellites like Starlink; space stations such as the ISS; scientific satellites like the Hubble; Earth observation satellites from companies like Planet Labs, Umbra, and HawkEye 360; GPS; miniature CubeSats for education and research; and military/defense satellites.

Not visible in the next 10 days
Identifier
52775, 2022-057AV
Orbit
Decayed
Country
Flag of ESES / SPN
Related business
Manufacturer
AISTech
Mission
Decayed Commercial Communications
Bus & Motor
CUBESAT 6U, Unknown motor
Mass
~15 kg wet, ~15 kg dry
Launch date (UTC)
2022-05-25 (4 years ago)
Launch vehicle
FALCON 9
Launch site
Air Force Eastern Test Range (AFETR)
Object type
Payload
Rocket body
Debris
Shape & HBR
Box + 1 Pan, 0.5 m
Radar Cross Section
0.120 m², Medium (>0.1 m² and < 1m²)

Expand to show TLE details & history
Last TLE update: 8 months ago

TLE from 8 months ago
0 GUARDIAN
1 52775U 22057AV  25288.66296959  .02034794  25365-5  11531-2 0  9997
2 52775  97.5881  84.8519 0006745 281.5808  78.4722 16.19138170189594
Epoch: 2025-10-15T15:54Z
TLE epoch observation values (Epoch: 2025-10-15T15:54:40.572Z)
Latitude
-0.00007°
Longitude
-178.25096°
Altitude
224.224 km
Speed
7.773 km/s
True Right ascension
05h 39m 24s
True Declination
0° 00' 00"
Sunlit
Object was in full shadow at epoch
Visualization orbit readout
Latitude
Unknown
Longitude
Unknown
Altitude
Unknown
Speed
Unknown
Apparent Right ascension
Unknown
Apparent Declination
Unknown
Sunlit
N/A
Visualization observer readout
Local Sidereal Time
23:21:50
Azimuth
Unknown
Elevation
Unknown
Doppler factor
Unknown
Orbital elements
Apogee altitude
223.186 km
Perigee altitude
214.287 km
Semi-major axis
6,596.873 km
Eccentricity
0.00067
Inclination
97.5881°
RAAN
84.8519°
Arg. of periapsis
281.5808°
True anomaly
78.54795°
Mean anomaly
78.4722°
Eccentric anomaly
78.51007°
Mean motion
4.05075 °/min
Orbital period
88.87 mins
BSTAR
0.0011531
Loading maneuver chart data...
Computing Atmospheric mass density...

Documentation

Showing up to 5 results
|